Stations météo

réclame
Mon MeteoGroup
Voorschoten AWS, Pays-Bas (6215): Température de l'air & dewpoint: 14.06.2018 23:00:00 - 20.06.2018 23:00:00 (CEST)Voorschoten AWS, Pays-Bas (6215): Température de l'air 5cm: 14.06.2018 23:00:00 - 20.06.2018 23:00:00 (CEST)Voorschoten AWS, Pays-Bas (6215): Vitesse du vent & gusts: 14.06.2018 23:00:00 - 20.06.2018 23:00:00 (CEST)Voorschoten AWS, Pays-Bas (6215): Direction du vent: 14.06.2018 23:00:00 - 20.06.2018 23:00:00 (CEST)Voorschoten AWS, Pays-Bas (6215): reduced air pressure: 14.06.2018 23:00:00 - 20.06.2018 23:00:00 (CEST)Voorschoten AWS, Pays-Bas (6215): visibility: 14.06.2018 23:00:00 - 20.06.2018 23:00:00 (CEST)Voorschoten AWS, Pays-Bas (6215): Quantités de précipitations: 14.06.2018 23:00:00 - 20.06.2018 23:00:00 (CEST)
Date & Time tt [°C] td [°C] tt 5cm [°C] ff [km/h] ff [knt] fx [km/h] fx [knt] dd ppp [hPa] vv [km] rr [mm]
20.06.2018 23:00:00 - - - - - - - - - - -
20.06.2018 22:00:00 17,7 15,4 16,7 7 4 22 12 WSW 1017,4 35 0,0
20.06.2018 21:00:00 19,5 15,6 19,5 14 8 25 14 SW 1017,3 38 0,0
20.06.2018 20:00:00 20,5 15,5 21,0 18 10 36 19 WSW 1018,0 35 0,0
20.06.2018 19:00:00 19,7 15,1 21,0 32 18 43 23 WSW 1018,6 28 0,0
20.06.2018 18:00:00 20,7 16,2 23,0 22 12 36 19 WSW 1018,9 23 0,0
20.06.2018 17:00:00 22,2 16,6 24,8 18 10 36 19 SW 1019,2 29 0,0
20.06.2018 16:00:00 21,9 16,7 24,8 22 12 36 19 W 1019,6 24 0,0
20.06.2018 15:00:00 21,3 15,8 24,2 22 12 36 19 WSW 1020,0 25 0,0
20.06.2018 14:00:00 19,4 16,4 21,2 18 10 32 18 SW 1020,6 16 0,0
20.06.2018 13:00:00 17,8 15,9 18,7 22 12 29 16 W 1021,3 13 0,0
20.06.2018 12:00:00 18,2 16,0 18,9 18 10 29 16 SSW 1021,4 15 0,0
20.06.2018 11:00:00 17,3 15,7 17,9 18 10 25 14 SSW 1021,4 9 0,0
20.06.2018 10:00:00 16,9 15,9 17,4 14 8 25 14 SW 1021,6 7 0,0
20.06.2018 09:00:00 16,4 15,8 16,6 14 8 25 14 SW 1021,6 6 0,0
20.06.2018 08:00:00 15,8 15,3 16,0 14 8 29 16 SW 1021,5 4,4 0,0
20.06.2018 07:00:00 15,8 15,2 15,8 18 10 25 14 SSW 1021,7 7 0,0
20.06.2018 06:00:00 15,3 14,9 14,7 11 6 22 12 SW 1021,8 10 0,0
20.06.2018 05:00:00 15,3 14,9 14,7 14 8 22 12 SSW 1021,8 12 0,0
20.06.2018 04:00:00 15,9 15,4 15,3 14 8 25 14 SSW 1022,0 10 0,0
20.06.2018 03:00:00 14,8 14,7 12,9 4 2 14 8 S 1022,4 11 0,0
20.06.2018 02:00:00 15,5 14,7 14,4 11 6 14 8 S 1022,7 21 0,0
20.06.2018 01:00:00 16,7 15,2 16,3 11 6 18 10 SSW 1023,1 34 0,0
20.06.2018 00:00:00 17,2 15,3 16,4 11 6 14 8 SSW 1023,5 39 0,0
19.06.2018 23:00:00 15,7 14,2 15,1 7 4 18 10 SW 1023,8 29 0,0
19.06.2018 22:00:00 17,5 14,9 16,9 11 6 18 10 WSW 1023,6 19 0,0
19.06.2018 21:00:00 19,4 15,1 19,6 14 8 22 12 SW 1023,2 29 0,0
19.06.2018 20:00:00 19,8 15,9 20,2 14 8 22 12 SW 1023,3 39 0,0
19.06.2018 19:00:00 20,3 15,3 21,6 11 6 25 14 WSW 1023,5 38 0,0
19.06.2018 18:00:00 20,7 15,2 23,0 14 8 25 14 WSW 1023,7 30 0,0
19.06.2018 17:00:00 19,8 14,8 22,5 14 8 25 14 W 1023,9 39 0,0
19.06.2018 16:00:00 19,9 15,1 22,7 18 10 29 16 W 1024,1 32 0,0
19.06.2018 15:00:00 19,7 15,6 22,2 18 10 29 16 W 1024,0 30 0,0
19.06.2018 14:00:00 18,5 15,3 20,5 18 10 29 16 WNW 1024,1 22 0,0
19.06.2018 13:00:00 17,6 15,1 18,5 18 10 25 14 WNW 1023,9 19 0,0
19.06.2018 12:00:00 18,4 15,5 19,3 18 10 32 18 W 1023,3 27 0,0
19.06.2018 11:00:00 17,8 15,0 18,2 18 10 29 16 W 1023,1 20 0,0
19.06.2018 10:00:00 17,3 15,1 17,6 18 10 32 18 W 1022,7 17 0,0
19.06.2018 09:00:00 17,1 15,4 17,2 18 10 29 16 WSW 1022,3 17 0,0
19.06.2018 08:00:00 16,9 15,4 17,1 22 12 32 18 WSW 1021,6 13 0,0
19.06.2018 07:00:00 16,7 15,2 16,6 22 12 36 19 W 1021,0 13 0,0
19.06.2018 06:00:00 16,6 15,1 16,5 22 12 36 19 WSW 1020,7 13 0,0
19.06.2018 05:00:00 16,9 15,0 16,7 22 12 36 19 WSW 1020,2 15 0,0
19.06.2018 04:00:00 17,2 14,8 16,9 22 12 32 18 WSW 1019,8 15 0,0
19.06.2018 03:00:00 17,1 14,5 16,7 18 10 32 18 WSW 1019,6 14 0,0
19.06.2018 02:00:00 16,9 14,1 16,0 18 10 36 19 WSW 1019,5 15 0,0
19.06.2018 01:00:00 16,1 13,1 15,4 18 10 32 18 SW 1019,4 27 0,0
19.06.2018 00:00:00 16,2 13,2 15,4 22 12 32 18 SW 1019,8 29 0,0
18.06.2018 23:00:00 15,8 13,2 14,8 22 12 32 18 SSW 1019,9 27 0,0
18.06.2018 22:00:00 16,2 13,1 15,5 22 12 32 18 SW 1019,8 28 0,0
18.06.2018 21:00:00 16,7 13,0 16,6 22 12 43 23 SW 1019,6 30 0,0
18.06.2018 20:00:00 17,8 12,8 18,5 18 10 36 19 SW 1019,5 28 0,0
18.06.2018 19:00:00 18,0 13,5 19,0 29 16 43 23 WSW 1019,5 28 0,0
18.06.2018 18:00:00 18,7 13,9 20,4 25 14 43 23 WSW 1019,6 28 0,0
18.06.2018 17:00:00 17,9 14,1 19,1 25 14 43 23 WSW 1019,7 27 0,0
18.06.2018 16:00:00 17,7 14,0 19,1 22 12 40 21 WSW 1019,6 29 0,0
18.06.2018 15:00:00 16,5 14,2 16,9 25 14 43 23 WSW 1019,7 19 0,0
18.06.2018 14:00:00 16,9 14,8 17,4 25 14 43 23 WSW 1019,6 22 0,0
18.06.2018 13:00:00 16,4 15,7 17,2 22 12 43 23 WSW 1019,4 3,6 0,3
18.06.2018 12:00:00 16,3 15,8 16,8 22 12 32 18 WSW 1019,0 2,6 0,1
18.06.2018 11:00:00 16,6 16,3 17,1 18 10 32 18 WSW 1018,4 3,0 0,5
18.06.2018 10:00:00 16,1 15,8 16,4 14 8 25 14 SW 1018,5 2,2 0,4
18.06.2018 09:00:00 15,7 15,2 15,8 18 10 32 18 SW 1018,1 3,1 0,0
18.06.2018 08:00:00 15,8 14,4 15,7 22 12 32 18 SSW 1017,6 13 0,0
18.06.2018 07:00:00 15,5 14,4 15,4 14 8 25 14 SSW 1017,8 16 0,0
18.06.2018 06:00:00 15,3 14,3 15,1 14 8 25 14 SW 1017,7 16 0,0
18.06.2018 05:00:00 15,1 14,1 14,8 18 10 25 14 SSW 1017,4 14 0,0
18.06.2018 04:00:00 14,4 13,9 14,1 14 8 25 14 SSW 1017,5 7 0,4
18.06.2018 03:00:00 13,8 13,5 13,8 14 8 25 14 SSW 1018,0 2,6 0,5
18.06.2018 02:00:00 13,8 13,4 13,8 14 8 29 16 SSW 1018,1 3,0 0,2
18.06.2018 01:00:00 14,9 12,6 14,6 14 8 40 21 SW 1018,5 15 0,0
18.06.2018 00:00:00 15,7 11,4 15,2 22 12 43 23 WSW 1018,5 21 0,0
17.06.2018 23:00:00 15,5 10,8 15,1 25 14 36 19 WSW 1018,5 23 0,0
17.06.2018 22:00:00 15,4 10,8 14,6 22 12 36 19 SW 1018,4 21 0,0
17.06.2018 21:00:00 15,7 11,3 15,5 25 14 40 21 WSW 1018,3 19 0,0
17.06.2018 20:00:00 16,2 10,9 16,3 22 12 36 19 WSW 1018,2 20 0,0
17.06.2018 19:00:00 16,4 11,7 16,8 18 10 32 18 WSW 1017,9 23 0,0
17.06.2018 18:00:00 16,5 11,0 17,7 25 14 40 21 WSW 1018,0 29 0,0
17.06.2018 17:00:00 17,4 12,1 19,1 22 12 36 19 WSW 1017,9 28 0,0
17.06.2018 16:00:00 17,0 11,8 18,6 25 14 36 19 WSW 1017,9 31 0,0
17.06.2018 15:00:00 16,8 12,0 18,1 25 14 40 21 WSW 1017,6 26 0,0
17.06.2018 14:00:00 17,4 11,7 18,7 18 10 32 18 W 1017,1 24 0,0
17.06.2018 13:00:00 16,1 11,3 17,5 22 12 36 19 WSW 1016,9 24 0,0
17.06.2018 12:00:00 16,3 11,9 17,3 18 10 36 19 WSW 1016,8 23 0,0
17.06.2018 11:00:00 16,0 11,6 16,9 22 12 36 19 WSW 1016,6 25 0,0
17.06.2018 10:00:00 15,5 11,1 16,2 22 12 32 18 W 1016,2 24 0,0
17.06.2018 09:00:00 15,1 11,3 15,2 18 10 32 18 WSW 1015,5 27 0,0
17.06.2018 08:00:00 15,1 11,0 15,0 25 14 36 19 WSW 1015,0 26 0,0
17.06.2018 07:00:00 14,9 11,1 14,8 18 10 40 21 WSW 1014,7 19 0,0
17.06.2018 06:00:00 15,0 11,8 14,7 22 12 36 19 WSW 1014,3 16 0,0
17.06.2018 05:00:00 15,1 12,9 14,9 22 12 40 21 WSW 1014,3 12 0,0
17.06.2018 04:00:00 15,4 12,7 15,2 22 12 36 19 WSW 1014,1 14 0,0
17.06.2018 03:00:00 15,4 11,5 15,0 25 14 43 23 WSW 1014,1 19 0,0
17.06.2018 02:00:00 14,9 11,9 13,8 18 10 43 23 WSW 1014,3 26 0,0
17.06.2018 01:00:00 15,1 12,2 14,4 22 12 40 21 WSW 1014,3 29 0,0
17.06.2018 00:00:00 15,3 12,4 14,6 22 12 36 19 WSW 1014,6 25 0,0
16.06.2018 23:00:00 14,7 11,4 13,8 18 10 36 19 SW 1014,6 24 0,0
16.06.2018 22:00:00 15,0 10,3 14,4 14 8 36 19 SW 1014,6 30 0,0
16.06.2018 21:00:00 16,3 9,4 15,9 22 12 40 21 WSW 1014,6 31 0,0
16.06.2018 20:00:00 17,1 9,9 17,6 18 10 40 21 WSW 1014,5 25 0,0
16.06.2018 19:00:00 17,1 9,8 17,8 25 14 40 21 W 1014,8 28 0,0
16.06.2018 18:00:00 17,4 9,9 18,3 22 12 36 19 W 1015,1 31 0,0
16.06.2018 17:00:00 17,7 10,6 19,4 22 12 32 18 W 1014,9 30 0,0
16.06.2018 16:00:00 18,6 11,5 21,0 18 10 32 18 W 1014,9 29 0,0
16.06.2018 15:00:00 18,1 12,6 20,1 25 14 36 19 W 1014,6 16 0,0
16.06.2018 14:00:00 18,3 14,3 18,5 18 10 29 16 SW 1014,6 11 0,0
16.06.2018 13:00:00 18,1 13,7 19,6 14 8 29 16 SW 1014,4 12 0,0
16.06.2018 12:00:00 17,0 13,0 18,4 18 10 29 16 SW 1014,9 16 0,0
16.06.2018 11:00:00 16,9 11,3 17,3 14 8 29 16 SSW 1014,7 19 0,0
16.06.2018 10:00:00 16,7 11,1 17,6 14 8 22 12 SSW 1014,8 25 0,0
16.06.2018 09:00:00 15,8 11,5 16,3 14 8 18 10 SSW 1014,7 24 0,0
16.06.2018 08:00:00 15,7 12,9 15,4 7 4 18 10 SSW 1014,7 15 0,0
16.06.2018 07:00:00 14,2 13,5 13,8 7 4 11 6 S 1014,7 10 0,0
16.06.2018 06:00:00 12,9 12,8 12,8 4 2 7 4 SSE 1014,6 3,4 0,0
16.06.2018 05:00:00 13,5 13,5 12,7 0 0 4 2 N 1014,9 8 0,0
16.06.2018 04:00:00 13,4 13,4 12,7 0 0 7 4 N 1015,1 7 0,0
16.06.2018 03:00:00 14,7 13,4 14,1 4 2 18 10 WSW 1015,4 9 0,0
16.06.2018 02:00:00 15,5 15,3 14,6 11 6 18 10 W 1015,9 3,9 0,0
16.06.2018 01:00:00 15,1 14,8 15,0 4 2 4 2 SW 1015,7 6 0,0
16.06.2018 00:00:00 15,3 15,1 15,3 4 2 11 6 SW 1015,9 6 0,0
15.06.2018 23:00:00 15,4 15,1 15,4 4 2 4 2 W 1015,9 6 0,0
15.06.2018 22:00:00 15,8 15,2 15,8 4 2 11 6 WNW 1015,9 7 0,0
15.06.2018 21:00:00 16,1 14,7 16,4 7 4 11 6 NW 1016,2 9 0,0
15.06.2018 20:00:00 17,6 15,0 19,3 11 6 14 8 NW 1016,2 10 0,0
15.06.2018 19:00:00 18,0 15,0 20,0 11 6 22 12 NNW 1016,5 10 0,0
15.06.2018 18:00:00 18,0 15,4 19,8 14 8 22 12 NW 1016,5 9 0,0
15.06.2018 17:00:00 19,3 15,2 22,9 18 10 22 12 NW 1016,4 11 0,0
15.06.2018 16:00:00 20,3 15,9 23,7 14 8 22 12 NW 1016,6 11 0,0
15.06.2018 15:00:00 18,9 15,2 20,3 11 6 25 14 NW 1016,7 10 0,0
15.06.2018 14:00:00 21,0 13,3 23,6 4 2 14 8 SW 1016,5 14 0,0
15.06.2018 13:00:00 20,2 16,2 22,9 4 2 18 10 W 1016,8 10 0,0
15.06.2018 12:00:00 18,0 14,8 20,0 14 8 22 12 W 1016,8 9 0,0
15.06.2018 11:00:00 18,5 14,2 20,7 11 6 18 10 SSW 1016,8 11 0,0
15.06.2018 10:00:00 17,6 14,4 19,2 11 6 14 8 SSW 1016,7 10 0,0
15.06.2018 09:00:00 16,6 14,3 17,7 7 4 14 8 S 1016,5 7 0,0
15.06.2018 08:00:00 15,8 15,2 16,2 7 4 11 6 ESE 1016,2 5 0,0
15.06.2018 07:00:00 14,5 14,4 14,5 4 2 14 8 SSW 1016,0 2,7 0,0
15.06.2018 06:00:00 13,6 13,5 13,5 4 2 7 4 E 1015,6 2,5 0,0
15.06.2018 05:00:00 13,9 13,9 14,0 4 2 7 4 NNW 1015,7 2,5 0,0
15.06.2018 04:00:00 13,5 13,5 12,7 4 2 7 4 WNW 1015,7 3,3 0,0
15.06.2018 03:00:00 11,7 11,7 10,7 4 2 7 4 SSW 1015,7 0,2 0,0
15.06.2018 02:00:00 13,1 13,0 12,3 4 2 11 6 SSW 1015,6 1,0 0,0
15.06.2018 01:00:00 13,9 13,8 13,2 4 2 7 4 NNW 1015,9 3,9 0,0
15.06.2018 00:00:00 14,8 14,1 14,3 7 4 11 6 W 1015,8 9 0,0
14.06.2018 23:00:00 15,3 14,3 15,0 7 4 14 8 WSW 1015,4 13 0,0

tt = Température de l'air
td = dewpoint
tt 5cm = Température de l'air 5cm
ff = Vitesse du vent
fx = gusts
dd = Direction du vent
ppp = reduced air pressure
vv = visibility
rr = Quantités de précipitations

stations d'obs. à proximité